Change the Weather History Date:

Saturday, March 16, 2013

  Actual Average (KEAU) Record (KEAU)
Temperature  
Mean Temperature 21 °F 31 °F  
Max Temperature 28 °F 41 °F 80 °F (2012)
Min Temperature 14 °F 22 °F -14 °F (1897)
Degree Days  
Heating Degree Days 44 34  
Month to date heating degree days 593  
Since 1 July heating degree days 6614  
Cooling Degree Days 0 0  
Month to date cooling degree days 0  
Year to date cooling degree days 0  
Moisture  
Dew Point 13 °F    
Average Humidity 68    
Maximum Humidity 93    
Minimum Humidity 47    
Precipitation  
Precipitation 0.00 in 0.06 in 0.73 in (1942)
Month to date precipitation 0.72  
Year to date precipitation 2.42  
Snow  
Snow 0.00 in 0.30 in 6.00 in (1942)
Month to date snowfall 5.0  
Since 1 July snowfall 41.3  
Snow Depth -    
Sea Level Pressure  
Sea Level Pressure 30.04 in    
Wind  
Wind Speed 10 mph (NW)    
Max Wind Speed 15 mph    
Max Gust Speed 23 mph    
Visibility 9 miles    
Events Snow    
T = Trace of Precipitation, MM = Missing Value Source: NWS Daily Summary

Daily Weather History Graph

Daily Weather History Graph

Search for Another Location

Airport or City:

Trip Planner

Search our weather history database for the weather conditions in past years. The results will help you decide how hot, cold, wet, or windy it might be!

Date:

Astronomy

Mar. 16, 2013 Rise Set
Actual Time 7:17 AM CDT 7:15 PM CDT
Civil Twilight 6:48 AM CDT 7:44 PM CDT
Nautical Twilight 6:14 AM CDT 8:18 PM CDT
Astronomical Twilight 5:39 AM CDT 8:53 PM CDT
Moon 9:34 AM CDT (3/16) No Moon Set
Length of Visible Light 12h 55m
Length of Day
11h 57m
Waxing Crescent, 23% of the Moon is Illuminated
Mar 16
Waxing Crescent
Mar 19
First Quarter
Mar 27
Full
Apr 2
Last Quarter
Apr 10
New

Hourly Weather History & Observations

Time (CDT) Temp. Windchill Dew Point Humidity Pressure Visibility Wind Dir Wind Speed Gust Speed Precip Events Conditions
12:15 AM 26.6 °F 17.5 °F 24.8 °F 93% 29.87 in 1.8 mi North 9.2 mph - N/A Snow Light Snow
12:35 AM 26.6 °F 17.5 °F 23.0 °F 86% 29.86 in 4.0 mi NNE 9.2 mph - N/A Snow Light Snow
12:55 AM 26.6 °F 16.8 °F 23.0 °F 86% 29.87 in 10.0 mi North 10.4 mph - N/A   Overcast
1:15 AM 26.6 °F 16.8 °F 21.2 °F 80% 29.86 in 10.0 mi North 10.4 mph - N/A   Overcast
1:35 AM 24.8 °F 14.0 °F 21.2 °F 86% 29.87 in 10.0 mi North 11.5 mph - N/A   Overcast
1:55 AM 24.8 °F 14.0 °F 21.2 °F 86% 29.88 in 10.0 mi North 11.5 mph - N/A   Overcast
2:15 AM 24.8 °F 14.0 °F 21.2 °F 86% 29.88 in 10.0 mi North 11.5 mph - N/A   Overcast
2:35 AM 24.8 °F 14.0 °F 21.2 °F 86% 29.89 in 7.0 mi North 11.5 mph 18.4 mph N/A   Overcast
2:55 AM 23.0 °F 13.1 °F 21.2 °F 93% 29.90 in 4.0 mi North 9.2 mph - N/A   Overcast
3:15 AM 23.0 °F 10.6 °F 21.2 °F 93% 29.90 in 4.0 mi North 13.8 mph - N/A   Overcast
3:55 AM 23.0 °F 11.7 °F 19.4 °F 86% 29.90 in 7.0 mi North 11.5 mph - N/A   Overcast
4:15 AM 21.2 °F 10.1 °F 19.4 °F 93% 29.90 in 7.0 mi North 10.4 mph - N/A   Overcast
4:55 AM 21.2 °F 9.5 °F 17.6 °F 86% 29.93 in 10.0 mi North 11.5 mph - N/A   Overcast
5:35 AM 21.2 °F 9.5 °F 17.6 °F 86% 29.95 in 10.0 mi North 11.5 mph - N/A   Overcast
5:55 AM 19.4 °F 7.2 °F 14.0 °F 80% 29.97 in 10.0 mi North 11.5 mph - N/A   Overcast
6:15 AM 19.4 °F 7.9 °F 15.8 °F 86% 29.98 in 10.0 mi North 10.4 mph - N/A   Overcast
6:35 AM 19.4 °F 7.2 °F 14.0 °F 80% 29.98 in 7.0 mi North 11.5 mph - N/A Snow Light Snow
6:55 AM 19.4 °F 9.5 °F 14.0 °F 80% 30.00 in 7.0 mi North 8.1 mph - N/A Snow Light Snow
7:15 AM 19.4 °F 5.5 °F 14.0 °F 80% 30.01 in 7.0 mi North 15.0 mph - N/A Snow Light Snow
7:35 AM 19.4 °F 11.5 °F 14.0 °F 80% 30.02 in 7.0 mi North 5.8 mph - N/A Snow Light Snow
7:55 AM 19.4 °F 11.5 °F 14.0 °F 80% 30.03 in 5.0 mi North 5.8 mph - N/A Snow Light Snow
8:15 AM 19.4 °F 11.5 °F 14.0 °F 80% 30.04 in 4.0 mi North 5.8 mph - N/A Snow Light Snow
8:35 AM 19.4 °F 11.5 °F 14.0 °F 80% 30.05 in 7.0 mi NNW 5.8 mph - N/A Snow Light Snow
8:55 AM 19.4 °F 9.5 °F 14.0 °F 80% 30.05 in 7.0 mi NNW 8.1 mph - N/A Snow Light Snow
9:15 AM 19.4 °F 8.6 °F 12.2 °F 74% 30.06 in 10.0 mi NNW 9.2 mph - N/A   Scattered Clouds
9:35 AM 19.4 °F 9.5 °F 12.2 °F 74% 30.06 in 10.0 mi NNW 8.1 mph - N/A   Clear
9:55 AM 19.4 °F 10.4 °F 12.2 °F 74% 30.07 in 10.0 mi NNW 6.9 mph - N/A   Scattered Clouds
10:15 AM 21.2 °F 12.6 °F 12.2 °F 68% 30.07 in 10.0 mi NNW 6.9 mph - N/A   Scattered Clouds
10:35 AM 21.2 °F 13.6 °F 12.2 °F 68% 30.07 in 10.0 mi NNW 5.8 mph - N/A   Clear
10:55 AM 21.2 °F 12.6 °F 12.2 °F 68% 30.08 in 10.0 mi North 6.9 mph - N/A   Clear
11:15 AM 23.0 °F 15.8 °F 12.2 °F 63% 30.08 in 10.0 mi NNW 5.8 mph - N/A   Clear
11:35 AM 23.0 °F - 12.2 °F 63% 30.08 in 10.0 mi Calm Calm - N/A   Clear
11:55 AM 24.8 °F 17.9 °F 12.2 °F 59% 30.09 in 10.0 mi West 5.8 mph - N/A   Clear
12:15 PM 24.8 °F 19.1 °F 12.2 °F 59% 30.09 in 10.0 mi NW 4.6 mph - N/A   Clear
12:35 PM 26.6 °F 18.2 °F 10.4 °F 51% 30.08 in 10.0 mi NW 8.1 mph - N/A   Clear
12:55 PM 26.6 °F 19.1 °F 12.2 °F 55% 30.08 in 10.0 mi West 6.9 mph - N/A   Clear
1:15 PM 26.6 °F 17.5 °F 12.2 °F 55% 30.09 in 10.0 mi West 9.2 mph - N/A   Scattered Clouds
1:35 PM 26.6 °F 18.2 °F 12.2 °F 55% 30.09 in 10.0 mi WNW 8.1 mph 17.3 mph N/A   Scattered Clouds
1:55 PM 26.6 °F 17.5 °F 10.4 °F 51% 30.09 in 10.0 mi WNW 9.2 mph 16.1 mph N/A   Clear
2:15 PM 28.4 °F 17.0 °F 10.4 °F 47% 30.09 in 10.0 mi West 15.0 mph - N/A   Clear
2:35 PM 26.6 °F 17.5 °F 10.4 °F 51% 30.09 in 10.0 mi West 9.2 mph 23.0 mph N/A   Scattered Clouds
2:55 PM 26.6 °F 16.2 °F 12.2 °F 55% 30.09 in 10.0 mi WNW 11.5 mph - N/A   Scattered Clouds
3:15 PM 26.6 °F 15.7 °F 12.2 °F 55% 30.08 in 10.0 mi West 12.7 mph 17.3 mph N/A   Scattered Clouds
3:35 PM 26.6 °F 14.7 °F 12.2 °F 55% 30.08 in 10.0 mi West 15.0 mph 19.6 mph N/A   Scattered Clouds
3:55 PM 26.6 °F 15.7 °F 12.2 °F 55% 30.08 in 10.0 mi West 12.7 mph - N/A   Clear
4:15 PM 26.6 °F 15.7 °F 12.2 °F 55% 30.08 in 10.0 mi West 12.7 mph - N/A   Clear
4:35 PM 26.6 °F 16.2 °F 12.2 °F 55% 30.07 in 10.0 mi WNW 11.5 mph - N/A   Scattered Clouds
4:55 PM 26.6 °F 15.2 °F 12.2 °F 55% 30.06 in 10.0 mi WNW 13.8 mph - N/A   Clear
5:15 PM 26.6 °F 16.2 °F 12.2 °F 55% 30.06 in 10.0 mi West 11.5 mph - N/A   Clear
5:35 PM 26.6 °F 16.8 °F 10.4 °F 51% 30.05 in 10.0 mi WNW 10.4 mph 16.1 mph N/A   Clear
5:55 PM 26.6 °F 15.7 °F 10.4 °F 51% 30.05 in 10.0 mi NW 12.7 mph - N/A   Clear
6:15 PM 26.6 °F 15.7 °F 10.4 °F 51% 30.05 in 10.0 mi WNW 12.7 mph - N/A   Clear
6:35 PM 24.8 °F 15.3 °F 10.4 °F 54% 30.06 in 10.0 mi West 9.2 mph - N/A   Clear
6:55 PM 23.0 °F 12.4 °F 8.6 °F 54% 30.07 in 10.0 mi West 10.4 mph - N/A   Clear
7:15 PM 23.0 °F 13.9 °F 8.6 °F 54% 30.08 in 10.0 mi West 8.1 mph - N/A   Clear
7:35 PM 21.2 °F 9.5 °F 8.6 °F 58% 30.10 in 10.0 mi West 11.5 mph - N/A   Clear
7:55 PM 21.2 °F 10.9 °F 8.6 °F 58% 30.12 in 10.0 mi West 9.2 mph - N/A   Clear
8:15 PM 21.2 °F 10.9 °F 8.6 °F 58% 30.13 in 10.0 mi West 9.2 mph - N/A   Clear
8:35 PM 21.2 °F 10.9 °F 6.8 °F 54% 30.14 in 10.0 mi West 9.2 mph - N/A   Clear
8:55 PM 19.4 °F 9.5 °F 6.8 °F 58% 30.14 in 10.0 mi West 8.1 mph - N/A   Clear
9:35 PM 19.4 °F 7.9 °F 6.8 °F 58% 30.16 in 10.0 mi WNW 10.4 mph - N/A   Clear
9:55 PM 17.6 °F 7.3 °F 6.8 °F 63% 30.16 in 10.0 mi WNW 8.1 mph - N/A   Clear
10:15 PM 17.6 °F 7.3 °F 6.8 °F 63% 30.16 in 10.0 mi WNW 8.1 mph - N/A   Clear
10:35 PM 17.6 °F 8.2 °F 5.0 °F 58% 30.17 in 10.0 mi West 6.9 mph - N/A   Clear
10:55 PM 15.8 °F 6.1 °F 5.0 °F 62% 30.17 in 10.0 mi West 6.9 mph - N/A   Clear
11:15 PM 15.8 °F 6.1 °F 5.0 °F 62% 30.18 in 10.0 mi West 6.9 mph - N/A   Clear
11:35 PM 14.0 °F 3.9 °F 5.0 °F 67% 30.19 in 10.0 mi West 6.9 mph - N/A   Clear
11:55 PM 14.0 °F 3.9 °F 5.0 °F 67% 30.20 in 10.0 mi West 6.9 mph - N/A   Clear